CZ-6A DEB, 54633

Orbit data source: Space-Track

CZ-6A DEB, 54633 is space debris in SSO originally from a launch on Fri, 11 Nov 2022 UTC launched from the Taiyaun Space Center, China (TSC). Debris objects in space refer to the collection of defunct objects orbiting the Earth. Examples of debris include non-operational satellites, rocket bodies, and fragments generated from explosions, collisions, or faulty payload assembly.

Loading next visibility...
Identifier
54633, 2022-151PK
Orbit
SSO
Country
Flag of CNCN / PRC
Related business
Manufacturer
SAST
Mission
Spacecraft
Bus & Motor
Unknown
Mass
Unknown
Launch date (UTC)
2022-11-11 (4 years ago)
Launch vehicle
Unknown
Launch site
Taiyaun Space Center, China (TSC)
Object type
Payload
Rocket body
Debris
Shape & HBR
Unknown shape, 0.1 m
Radar Cross Section
Medium (>0.1 m² and <1 m²)

Expand to show TLE details & history
Last TLE update: 23 hours ago

TLE from 23 hours ago
0 CZ-6A DEB
1 54633U 22151PK  26235.42051105  .00009393  00000-0  14302-2 0  9994
2 54633  98.6254 304.8958 0068312  75.6317 285.2460 14.72591297199039
Epoch: 2026-08-23T10:05Z
TLE epoch observation values (Epoch: 2026-08-23T10:05:32.154Z)
Latitude
0.00004°
Longitude
-178.205°
Altitude
643.47 km
Speed
7.543 km/s
True Right ascension
20h 19m 34s
True Declination
0° 00' 00"
Sunlit
Object was in full shadow at epoch
Visualization orbit readout
Latitude
Unknown
Longitude
Unknown
Altitude
Unknown
Speed
Unknown
Apparent Right ascension
Unknown
Apparent Declination
Unknown
Sunlit
N/A
Visualization observer readout
Local Sidereal Time
00:25:01
Azimuth
Unknown
Elevation
Unknown
Doppler factor
Unknown
Orbital elements
Apogee altitude
697.902 km
Perigee altitude
601.882 km
Semi-major axis
7,028.029 km
Eccentricity
0.00683
Inclination
98.6254°
RAAN
304.8958°
Arg. of periapsis
75.6317°
True anomaly
284.48907°
Mean anomaly
285.246°
Eccentric anomaly
284.8677°
Mean motion
3.68377 °/min
Orbital period
97.73 mins
BSTAR
0.0014302
Loading maneuver chart data...
Computing Atmospheric mass density...
Loading historical data...
Loading historical data...
Loading historical data...
Loading historical data...
Loading historical data...
Loading historical data...
Loading historical data...

Documentation

Showing up to 5 results
|